This demonstration page uses our WeatherBlox Daily Observations layout. Learn more.

Hourly Observations for January 17, 2019

Temp ( °F °C ) Dew Point ( °F °C ) Humidity (%) Winds ( mph kmh ) Pressure ( in mb ) Visibility ( mi km ) Precip ( " mm )
12:15 am 00:15 Cloudy with Mist and Fog 29 -1.5 28 -2.5 93 93 WSW 5 7 30.15 1021 5 8.04672 0 0
12:35 am 00:35 Cloudy with Mist and Fog 29 -1.5 28 -2.5 93 93 WSW 7 11 30.15 1021 5 8.04672 0 0
12:55 am 00:55 Cloudy with Mist and Fog 29 -1.5 28 -2.5 93 93 WSW 6 9 30.15 1021 4 6.437376 0 0
1:15 am 01:15 Cloudy with Mist and Fog 29 -1.5 28 -2.3 94 94 WSW 5 7 30.15 1021 4 6.437376 0 0
1:35 am 01:35 Cloudy with Mist and Fog 30 -1.3 28 -2.1 94 94 WSW 7 11 30.15 1021 4 6.437376 0 0
1:55 am 01:55 Cloudy with Mist and Fog 30 -1.2 28 -2 94 94 W 9 15 30.15 1021 4 6.437376 0 0
2:15 am 02:15 Cloudy with Mist and Fog 30 -1 29 -1.9 94 94 W 7 11 30.15 1021 3 4.828032 0 0
2:35 am 02:35 Cloudy with Mist and Fog 30 -1 29 -1.7 95 95 W 6 9 30.15 1021 3 4.828032 0 0
2:55 am 02:55 Cloudy with Mist and Fog 30 -1 29 -1.7 95 95 W 5 7 30.15 1021 4 6.437376 0 0
3:15 am 03:15 Cloudy with Mist and Fog 31 -0.8 29 -1.6 94 94 W 7 11 30.15 1021 4 6.437376 0 0
3:35 am 03:35 Cloudy with Mist and Fog 31 -0.7 29 -1.6 94 94 WNW 7 11 30.15 1021 4 6.437376 0 0
3:55 am 03:55 Cloudy with Mist and Fog 31 -0.7 29 -1.8 92 92 WNW 8 13 30.15 1021 5 8.04672 0 0
4:15 am 04:15 Cloudy with Mist and Fog 31 -0.6 29 -1.8 92 92 WNW 8 13 30.15 1021 5 8.04672 0 0
4:35 am 04:35 Cloudy with Mist and Fog 31 -0.6 29 -1.8 92 92 WNW 10 17 30.15 1021 4 6.437376 0 0
4:55 am 04:55 Cloudy with Mist and Fog 31 -0.7 29 -1.8 92 92 WNW 8 13 30.15 1021 4 6.437376 0 0
5:15 am 05:15 Cloudy with Mist and Fog 31 -0.6 29 -1.6 93 93 W 10 17 30.15 1021 3 4.828032 0 0
5:35 am 05:35 Cloudy with Mist and Fog 31 -0.5 29 -1.5 93 93 WNW 8 13 30.15 1021 3 4.828032 0 0
5:55 am 05:55 Cloudy with Mist and Fog 31 -0.6 29 -1.5 94 94 NW 10 17 30.15 1021 2 3.218688 0 0
6:15 am 06:15 Cloudy with Mist and Fog 30 -0.9 29 -1.7 94 94 NW 13 20 30.15 1021 2 3.218688 0 0
6:35 am 06:35 Cloudy with Mist and Fog 31 -0.7 29 -1.5 94 94 NNW 10 17 30.15 1021 2.5 4.02336 0 0
6:55 am 06:55 Cloudy with Mist and Fog 31 -0.6 29 -1.4 94 94 NW 9 15 30.15 1021 3 4.828032 0 0
7:15 am 07:15 Cloudy with Mist and Fog 31 -0.6 29 -1.5 94 94 WNW 6 9 30.15 1021 4 6.437376 0 0
7:35 am 07:35 Cloudy with Mist and Fog 31 -0.5 30 -1.3 94 94 NW 6 9 30.15 1021 4 6.437376 0 0
7:55 am 07:55 Cloudy with Mist and Fog 31 -0.5 29 -1.4 94 94 NNE 6 9 30.15 1021 4 6.437376 0 0
8:15 am 08:15 Cloudy with Mist and Fog 31 -0.6 29 -1.5 94 94 WNW 6 9 30.15 1021 3 4.828032 0 0
8:35 am 08:35 Cloudy with Mist and Fog 32 -0.2 30 -1 94 94 NW 5 7 30.15 1021 3 4.828032 0 0
8:55 am 08:55 Cloudy with Mist and Fog 31 -0.7 29 -1.7 93 93 Calm 30.15 1021 4 6.437376 0 0
9:15 am 09:15 Cloudy with Mist and Fog 31 -0.6 29 -1.6 93 93 N 5 7 30.15 1021 4 6.437376 0 0
9:35 am 09:35 Cloudy with Mist and Fog 31 -0.7 29 -1.8 92 92 Calm 30.15 1021 4 6.437376 0 0
9:55 am 09:55 Cloudy with Mist and Fog 31 -0.6 29 -1.7 92 92 WSW 6 9 30.18 1022 4 6.437376 0 0
10:15 am 10:15 Cloudy with Mist and Fog 31 -0.7 29 -1.8 92 92 WSW 3 6 30.18 1022 3 4.828032 0 0
10:35 am 10:35 Cloudy with Mist and Fog 31 -0.8 28 -2 92 92 Calm 30.18 1022 4 6.437376 0 0
10:55 am 10:55 Cloudy with Mist and Fog 31 -0.7 29 -1.8 92 92 Calm 30.18 1022 3 4.828032 0 0
11:15 am 11:15 Cloudy with Mist and Fog 31 -0.5 29 -1.6 92 92 Calm 30.18 1022 4 6.437376 0 0
11:35 am 11:35 Cloudy with Mist and Fog 31 -0.5 29 -1.6 92 92 Calm 30.18 1022 4 6.437376 0 0
11:55 am 11:55 Cloudy with Mist and Fog 31 -0.3 29 -1.5 92 92 SE 5 7 30.15 1021 4 6.437376 0 0
12:15 pm 12:15 Cloudy with Mist and Fog 31 -0.3 29 -1.6 91 91 Calm 30.15 1021 4 6.437376 0 0
12:35 pm 12:35 Cloudy with Mist and Fog 32 0 29 -1.4 90 90 Calm 30.15 1021 4 6.437376 0 0
12:55 pm 12:55 Cloudy with Mist and Fog 32 0 29 -1.5 90 90 S 7 11 30.15 1021 4 6.437376 0 0
1:15 pm 13:15 Cloudy with Mist and Fog 32 0 29 -1.4 90 90 SSW 7 11 30.15 1021 5 8.04672 0 0
1:35 pm 13:35 Cloudy with Mist and Fog 32 -0.2 29 -1.6 90 90 SSE 5 7 30.15 1021 5 8.04672 0 0
1:55 pm 13:55 Cloudy with Mist and Fog 32 0.1 30 -1.2 91 91 SSE 8 13 30.15 1021 5 8.04672 0 0
2:15 pm 14:15 Cloudy with Mist and Fog 32 0 29 -1.5 90 90 S 8 13 30.15 1021 5 8.04672 0 0
2:35 pm 14:35 Cloudy 32 0 29 -1.5 90 90 SSE 6 9 30.15 1021 7 11.265408 0 0
2:55 pm 14:55 Cloudy with Mist and Fog 32 0.1 30 -1.3 90 90 SSE 5 7 30.15 1021 5 8.04672 0 0
3:15 pm 15:15 Cloudy with Mist and Fog 32 0.1 30 -1.2 91 91 SSE 5 7 30.15 1021 4 6.437376 0 0
3:35 pm 15:35 Cloudy with Mist and Fog 32 0.2 30 -1.1 91 91 S 8 13 30.15 1021 5 8.04672 0 0
3:55 pm 15:55 Cloudy with Mist and Fog 32 0 30 -1.2 92 92 SSE 3 6 30.12 1020 5 8.04672 0 0
4:15 pm 16:15 Cloudy with Mist and Fog 32 0.1 30 -1 92 92 SE 6 9 30.12 1020 5 8.04672 0 0
4:35 pm 16:35 Cloudy with Mist and Fog 32 0 30 -1.2 92 92 SSE 5 7 30.12 1020 4 6.437376 0 0
4:55 pm 16:55 Cloudy with Mist and Fog 32 0 30 -1 93 93 SE 8 13 30.12 1020 4 6.437376 0 0
5:15 pm 17:15 Cloudy with Mist and Fog 32 -0.2 30 -1.2 93 93 ESE 7 11 30.12 1020 2.5 4.02336 0 0
5:35 pm 17:35 Cloudy with Mist and Fog 32 -0.2 30 -1 94 94 ESE 5 7 30.12 1020 1 1.609344 0 0
5:55 pm 17:55 Cloudy with Mist and Fog 31 -0.5 30 -1.3 94 94 ESE 6 9 30.12 1020 1.5 2.414016 0 0
6:15 pm 18:15 Cloudy with Freezing Fog 31 -0.5 30 -1.2 95 95 ESE 7 11 30.12 1020 0.5 0.804672 0 0
6:35 pm 18:35 Cloudy with Freezing Fog 31 -0.6 30 -1.2 96 96 E 8 13 30.12 1020 0.5 0.804672 0 0
6:55 pm 18:55 Cloudy with Freezing Fog 31 -0.6 30 -1.2 96 96 ESE 10 17 30.12 1020 0.5 0.804672 0 0
7:15 pm 19:15 Cloudy with Freezing Fog 31 -0.6 30 -1.2 96 96 SE 10 17 30.12 1020 0.5 0.804672 0 0
7:35 pm 19:35 Cloudy with Freezing Fog 31 -0.7 30 -1.3 96 96 SE 9 15 30.12 1020 0.5 0.804672 0 0
7:55 pm 19:55 Cloudy with Freezing Fog 31 -0.7 30 -1.3 96 96 ESE 10 17 30.09 1019 0.5 0.804672 0 0
8:15 pm 20:15 Cloudy with Freezing Fog 31 -0.7 30 -1.3 96 96 ESE 10 17 30.09 1019 0.5 0.804672 0 0
8:35 pm 20:35 Cloudy with Mist and Fog 31 -0.8 29 -1.5 95 95 SE 12 19 30.09 1019 1 1.609344 0 0
8:55 pm 20:55 Cloudy with Mist and Fog 31 -0.8 29 -1.4 96 96 SE 9 15 30.09 1019 0.75 1.207008 0 0
9:15 pm 21:15 Cloudy with Mist and Fog 31 -0.8 29 -1.5 95 95 ESE 10 17 30.09 1019 1.25 2.01168 0 0
9:35 pm 21:35 Cloudy with Mist and Fog 31 -0.6 30 -1.2 96 96 ESE 12 19 30.06 1018 0.75 1.207008 0 0
9:55 pm 21:55 Cloudy with Freezing Fog 31 -0.5 30 -1 96 96 SE 13 20 30.09 1019 0.5 0.804672 0 0
10:15 pm 22:15 Cloudy with Freezing Fog 31 -0.5 30 -1 96 96 SE 9 15 30.06 1018 0.5 0.804672 0 0
10:35 pm 22:35 Cloudy with Mist and Fog 31 -0.5 30 -1.1 96 96 SE 12 19 30.06 1018 0.75 1.207008 0 0
10:55 pm 22:55 Cloudy with Freezing Fog 31 -0.5 30 -1 96 96 ESE 14 22 30.06 1018 0.5 0.804672 0 0
11:15 pm 23:15 Cloudy with Mist and Fog 31 -0.6 30 -1.2 96 96 SE 16 26 30.03 1017 1.25 2.01168 0 0
11:35 pm 23:35 Cloudy with Mist and Fog 31 -0.7 30 -1.3 96 96 ESE 15 24 30.03 1017 1 1.609344 0 0
11:55 pm 23:55 Cloudy with Mist and Fog 31 -0.8 29 -1.5 95 95 ESE 16 26 30.03 1017 2 3.218688 0 0

Powered by AerisWeather